Location: Hawks Ness
(60.2333°N, 1.1667°W)
Time: 18:21:31
(UTC+00:00)

Cosmos 1726 - Pass Details

Date: 01 February 2020
Orbit: 482 x 500 km, 82.5° (Epoch: 16 February)

Event Time Altitude Azimuth Distance (km) Brightness Sun altitude
Exits shadow 05:23:18 20° 357° (N) 1,193 4.0 -21.7°
Drops below altitude 10° 05:24:35 10° 5° (N) 1,680 4.9 -21.5°
Sets 05:26:46 0° 12° (NNE) 2,566 5.9 -21.3°
